This is the latest recevied weather packets stored in our database for station/object KD8FRE. If no packets are shown the sender has not sent any weather packets the latest 10 day(s).
| Time | Temp. | Humidity | Pressure | Rain* | Wind** | Luminosity | Snow |
|---|---|---|---|---|---|---|---|
| 1777512120 | 6.67° C | 90% | 1012.9 hPa | 0 mm | - | 0 W/m² | - |
| 1777511818 | 6.67° C | 90% | 1012.8 hPa | 0 mm | - | 0 W/m² | - |
| 1777511515 | 6.67° C | 90% | 1012.7 hPa | 0 mm | - | 0 W/m² | - |
| 1777511212 | 6.67° C | 90% | 1012.8 hPa | 0 mm | - | 0 W/m² | - |
| 1777510908 | 6.67° C | 90% | 1012.5 hPa | 0 mm | - | 0 W/m² | - |
| 1777510604 | 6.67° C | 90% | 1012.5 hPa | 0 mm | - | 0 W/m² | - |
| 1777510301 | 6.67° C | 90% | 1012.5 hPa | 0 mm | - | 0 W/m² | - |
| 1777509997 | 6.67° C | 90% | 1012.4 hPa | 0 mm | - | 0 W/m² | - |
| 1777509693 | 7.22° C | 89% | 1012.5 hPa | 0 mm | - | 0 W/m² | - |
| 1777509390 | 7.22° C | 89% | 1012.3 hPa | 1.78 mm | - | 1 W/m² | - |
| 1777509087 | 7.22° C | 88% | 1012.1 hPa | 0 mm | - | 1 W/m² | - |
| 1777508784 | 7.22° C | 89% | 1012.3 hPa | 0 mm | - | 1 W/m² | - |
| 1777508481 | 7.22° C | 89% | 1012.2 hPa | 1.27 mm | - | 2 W/m² | - |
| 1777508178 | 7.22° C | 89% | 1011.9 hPa | 3.05 mm | - | 3 W/m² | - |
| 1777507875 | 7.78° C | 89% | 1012.1 hPa | 1.78 mm | - | 4 W/m² | - |
| 1777507572 | 7.78° C | 89% | 1011.9 hPa | 0 mm | - | 5 W/m² | - |
| 1777507269 | 7.78° C | 88% | 1011.9 hPa | 1.27 mm | - | 6 W/m² | - |
| 1777506966 | 7.78° C | 87% | 1011.8 hPa | 1.27 mm | - | 5 W/m² | - |
| 1777506663 | 7.78° C | 86% | 1011.8 hPa | 0 mm | - | 5 W/m² | - |
| 1777506360 | 8.33° C | 84% | 1011.8 hPa | 0 mm | - | 8 W/m² | - |
| 1777506055 | 8.33° C | 83% | 1011.6 hPa | 0 mm | - | 9 W/m² | - |
| 1777505750 | 8.33° C | 83% | 1011.6 hPa | 0 mm | - | 12 W/m² | - |
| 1777505449 | 8.33° C | 82% | 1011.5 hPa | 0 mm | - | 13 W/m² | - |
| 1777505145 | 8.89° C | 84% | 1011.5 hPa | 0 mm | - | 14 W/m² | - |
| 1777504842 | 8.89° C | 84% | 1011.6 hPa | 0 mm | - | 15 W/m² | - |
* Rain latest hour (hover to see other rain measurements)
** Current wind speed in m/s (hover to see current wind gust speed)